Weather Roundup
Issued by NWS Chicago, IL

Home | Current Version | Previous Version | Graphics & Text | Print | Product List | Glossary On
Versions: 1 2 3 4 5 6 7 8 9 10 11 12 13 14 15 16 17 18 19 20 21 22 23 24 25 26 27 28 29 30 31 32 33 34 35 36 37 38 39 40 41 42 43 44 45 46 47 48 49 50
000
NZUS59 KLOT 232008
HRRLOT

CHICAGO AREA WEATHER ROUNDUP
NATIONAL WEATHER SERVICE CHICAGO/ROMEOVILLE IL
300 PM CDT SUN APR 23 2017

NOTE: "FAIR" INDICATES FEW OR NO CLOUDS BELOW 12,000 FEET WITH NO
SIGNIFICANT WEATHER AND/OR OBSTRUCTIONS TO VISIBILITY.

* THESE STATIONS ARE NOT UNDER NWS QUALITY CONTROL. THEY ALSO MAY NOT
  REPORT WEATHER SUCH AS PRECIPITATION OR FOG.

ILZ005-006-012>014-019>023-232100-
NORTHEAST ILLINOIS

CITY           SKY/WX    TMP DP  RH WIND       PRES   REMARKS
OHARE          SUNNY     72  27  18 NE8       30.04F
MIDWAY         SUNNY     69  31  24 E8G16     30.06F
AURORA         SUNNY     71  33  24 N9        30.05F
LANSING*       SUNNY     66  33  29 NE9G16    30.06F
JOLIET*        SUNNY     71  34  25 N7        30.05F
WAUKEGAN       SUNNY     66  35  31 SE9       30.04F
DUPAGE AIRPORT SUNNY     71  31  22 NW6       30.04F
WHEELING       SUNNY     69  33  26 S6        30.06F
KANKAKEE*      SUNNY     71  22  16 NE8       30.05F
MORRIS*        SUNNY     71  27  19 NE3       30.04F
LEWIS AIRPORT* SUNNY     69  35  29 E3        30.05F
NORTHERLY ISL    N/A     57  43  59 SE5         N/A
$$

WIZ051-052-058>065-066-070>072-232100-
SOUTHEAST WISCONSIN

CITY           SKY/WX    TMP DP  RH WIND       PRES   REMARKS
MILWAUKEE      MOSUNNY   47  39  74 NE20G31   30.10R
KENOSHA*       SUNNY     69  33  26 VRB3      30.04F
RACINE*        SUNNY     49  40  71 N20       30.09R
WAUKESHA       SUNNY     54  39  58 E12G25    30.08R
WEST BEND      SUNNY     52  39  62 E13G18    30.08S
$$

INZ001>003-010>013-019-020-232100-
NORTHWEST INDIANA

CITY           SKY/WX    TMP DP  RH WIND       PRES   REMARKS
GARY*          SUNNY     66  14  13 NE7       30.07F
MICHIGAN CITY* NOT AVBL
RENSSELAER*    NOT AVBL
VALPARAISO     SUNNY     68  25  19 NE8       30.06F
$$

LMZ740>746-232100-
SOUTHERN LAKE MICHIGAN

STATION/POSITION TIME  SKY/WX   TEMP WIND        PRES    VSBY
                                AIR  DIR/SP/G
                 (UTC)          (F)  (DEG/KT/KT) (MB)    (MI)
HARRISON CRIB    1930            59  120/  7/  7   N/A
BURNHAM HARBOR   2000            58  120/  2/  5   N/A
CALUMET HARBOR   1942            57   80/  7/  8 1017.7F
BURNS HARBOR     1940            56   60/  3/  4 1019.0F
MICHIGAN CITY    1940            54  360/  2/  2   N/A
$$

ABBREVIATIONS USED IN REMARKS
   TC - TEMPERATURE IN CELSIUS
  WCI - WIND CHILL INDEX
   HX - HEAT INDEX
  VSB - VISIBILITY
$$




USA.gov is the U.S. government's official web portal to all federal, state and local government web resources and services.